Weather History for KSLN - September, 2014

Change the Weather History Date:

Friday, September 5, 2014

  Actual Average Record
Temperature  
Mean Temperature 70 °F 75 °F  
Max Temperature 79 °F 87 °F 106 °F (1922)
Min Temperature 61 °F 63 °F 45 °F (1974)
Degree Days  
Heating Degree Days 0 0  
Month to date heating degree days 0 0  
Since 1 July heating degree days 0 1  
Cooling Degree Days 5 10  
Month to date cooling degree days 62 53  
Year to date cooling degree days 1620 1460  
Growing Degree Days 20 (Base 50)    
Moisture  
Dew Point 56 °F    
Average Humidity 75    
Maximum Humidity 90    
Minimum Humidity 59    
Precipitation  
Precipitation T in 0.09 in 2.00 in (1989)
Month to date precipitation 0.07 0.49  
Year to date precipitation 21.35 24.83  
Sea Level Pressure  
Sea Level Pressure 30.14 in    
Wind  
Wind Speed 13 mph (North)    
Max Wind Speed 30 mph    
Max Gust Speed 35 mph    
Visibility 10 miles    
Events      
T = Trace of Precipitation, MM = Missing Value Source: NWS Daily Summary

Daily Weather History Graph

Daily Weather History Graph

Search for Another Location

Airport or City:

Trip Planner

Search our weather history database for the weather conditions in past years. The results will help you decide how hot, cold, wet, or windy it might be!

Date:

Astronomy

Sep. 05, 2014 Rise Set
Actual Time 7:03 AM CDT 7:54 PM CDT
Civil Twilight 6:36 AM CDT 8:21 PM CDT
Nautical Twilight 6:04 AM CDT 8:53 PM CDT
Astronomical Twilight 5:30 AM CDT 9:26 PM CDT
Moon 5:23 PM CDT (9/5) 3:00 AM CDT (9/5)
Length of Visible Light 13h 45m
Length of Day
12h 51m
Waxing Gibbous, 84% of the Moon is Illuminated
Sep 5
Waxing Gibbous
Sep 8
Full
Sep 15
Last Quarter
Sep 24
New
Oct 1
First Quarter

Hourly Weather History & Observations

Time (CDT) Temp. Dew Point Humidity Pressure Visibility Wind Dir Wind Speed Gust Speed Precip Events Conditions
12:53 AM 78.1 °F 64.9 °F 64% 29.90 in 10.0 mi Calm Calm - N/A   Overcast
1:53 AM 78.1 °F 66.0 °F 66% 29.91 in 10.0 mi Calm Calm - N/A   Scattered Clouds
2:53 AM 75.0 °F 68.0 °F 79% 29.93 in 10.0 mi WNW 10.4 mph - N/A   Mostly Cloudy
3:53 AM 71.1 °F 57.9 °F 63% 29.98 in 10.0 mi North 20.7 mph 33.4 mph N/A   Partly Cloudy
4:53 AM 69.1 °F 55.9 °F 63% 30.01 in 10.0 mi NNE 19.6 mph 26.5 mph N/A   Clear
5:53 AM 68.0 °F 53.1 °F 59% 30.04 in 10.0 mi North 13.8 mph 23.0 mph N/A   Clear
6:53 AM 66.9 °F 53.1 °F 61% 30.05 in 10.0 mi NNE 11.5 mph - N/A   Clear
7:53 AM 66.9 °F 53.1 °F 61% 30.09 in 10.0 mi NNE 13.8 mph - N/A   Clear
8:53 AM 66.0 °F 54.0 °F 65% 30.15 in 10.0 mi NNW 17.3 mph - N/A   Overcast
9:53 AM 66.9 °F 55.0 °F 66% 30.11 in 10.0 mi NNE 19.6 mph - N/A   Partly Cloudy
10:53 AM 66.0 °F 55.0 °F 68% 30.14 in 10.0 mi NNE 16.1 mph - N/A   Scattered Clouds
11:53 AM 66.0 °F 54.0 °F 65% 30.16 in 10.0 mi NNE 15.0 mph 23.0 mph N/A   Scattered Clouds
12:53 PM 66.0 °F 54.0 °F 65% 30.19 in 10.0 mi NNE 17.3 mph - 0.00 in   Overcast
1:19 PM 68.0 °F 54.0 °F 61% 30.20 in 10.0 mi North 20.7 mph - N/A   Mostly Cloudy
1:53 PM 66.0 °F 54.0 °F 65% 30.20 in 10.0 mi North 19.6 mph - N/A   Overcast
2:53 PM 66.0 °F 54.0 °F 65% 30.19 in 10.0 mi North 18.4 mph - N/A   Mostly Cloudy
3:41 PM 63.0 °F 55.9 °F 78% 30.21 in 10.0 mi North 18.4 mph - N/A   Overcast
3:50 PM 62.6 °F 55.4 °F 77% 30.20 in 10.0 mi North 18.4 mph - N/A   Overcast
3:53 PM 62.1 °F 55.9 °F 80% 30.19 in 10.0 mi North 16.1 mph - N/A   Overcast
4:53 PM 62.1 °F 52.0 °F 70% 30.20 in 10.0 mi North 18.4 mph - 0.00 in   Overcast
5:53 PM 63.0 °F 53.1 °F 70% 30.17 in 10.0 mi NNE 13.8 mph - 0.00 in   Partly Cloudy
6:53 PM 63.0 °F 55.0 °F 75% 30.19 in 10.0 mi North 10.4 mph - N/A   Overcast
7:53 PM 63.0 °F 57.0 °F 81% 30.20 in 10.0 mi North 9.2 mph - N/A   Mostly Cloudy
8:53 PM 63.0 °F 55.9 °F 78% 30.22 in 10.0 mi North 9.2 mph - N/A   Partly Cloudy
9:53 PM 61.0 °F 57.0 °F 87% 30.24 in 10.0 mi North 8.1 mph - N/A   Scattered Clouds
10:00 PM 61.0 °F 57.0 °F 87% 30.25 in 10.0 mi North 10.4 mph - N/A   Mostly Cloudy
10:08 PM 61.0 °F 57.0 °F 87% 30.25 in 10.0 mi North 10.4 mph - N/A   Partly Cloudy
10:53 PM 61.0 °F 57.0 °F 87% 30.25 in 10.0 mi NNW 8.1 mph - N/A   Mostly Cloudy
11:53 PM 61.0 °F 55.9 °F 83% 30.27 in 10.0 mi NNW 6.9 mph - N/A   Overcast